Home > Weather > Muktsar > Past weeks

Flag for India Weather for the Past 2 Weeks in Muktsar, Punjab, India

Now
82 °F

Haze.


Feels Like: 82 °F
Forecast: 78 / 98 °F
Wind: 7 mph from Northeast

Location: Lahore Airport

Current Time: May 4, 2016 at 9:39:26 PM

Latest Report: May 4, 2016 at 8:25 PM


Visibility: 3 mi

Pressure: 29.71 "Hg

Humidity: 45%

Dew Point: 59 °F

Location of MuktsarLocation

Historic Weather in Muktsar — Graph

°F

Muktsar Temperature Yesterday

Maximum temperature yesterday: 97 °F (at 2:25 PM)
Minimum temperature yesterday: 82 °F (at 11:25 PM)
Average temperature yesterday: 90 °F

High & Low Weather Summary for the Past Weeks

 TemperatureHumidityPressure
High111 °F (May 2, 3:25 PM)100% (Apr 21, 9:25 PM)30.01 "Hg (Apr 21, 9:25 PM)
Low68 °F (Apr 27, 2:25 AM)9% (Apr 30, 2:25 PM)29.56 "Hg (Apr 22, 4:25 PM)
Average88 °F31%29.70 "Hg
* Reported Apr 19 7:30 PM — May 4 7:55 PM, Muktsar, Weather by CustomWeather, © 2016

Note: Actual official high and low records may vary slightly from our data, if they occured in-between our weather recording intervals... More about our weather records

Advertising

Muktsar Weather History for the Previous 24 Hours

Scroll right to see more
 ConditionsComfort  
Time TempWeatherWind HumidityBarometerVisibility
7:55 PM
Wed, May 4
84 °FPassing clouds.8 mph43%29.68 "Hg4 mi
7:25 PM86 °FPassing clouds.12 mph40%29.68 "Hg4 mi
6:55 PM88 °FPassing clouds.10 mph35%29.65 "Hg4 mi
6:25 PM90 °FPassing clouds.13 mph33%29.62 "Hg4 mi
5:25 PM91 °FScattered clouds.13 mph28%29.62 "Hg4 mi
4:25 PM91 °FScattered clouds.13 mph28%29.65 "Hg4 mi
3:55 PM91 °FScattered clouds.12 mph32%29.65 "Hg3 mi
2:55 PM91 °FScattered clouds.10 mph32%29.68 "Hg2 mi
2:25 PM90 °FScattered clouds.10 mph33%29.68 "Hg2 mi
1:25 PM88 °FBroken clouds.12 mph35%29.71 "Hg2 mi
12:55 PM86 °FBroken clouds.9 mph40%29.71 "Hg2 mi
11:55 AM86 °FBroken clouds.7 mph40%29.71 "Hg2 mi
11:25 AM84 °FBroken clouds.5 mph40%29.71 "Hg2 mi
9:25 AM82 °FScattered clouds.9 mph40%29.71 "Hg2 mi
8:25 AM82 °FScattered clouds.9 mph40%29.71 "Hg2 mi
5:30 AM79 °FPartly cloudy.12 mph45%29.71 "Hg2 mi
5:00 AM81 °FThunderstorms. Partly cloudy.14 mph51%29.68 "Hg2 mi
4:30 AM81 °FThunderstorms. Partly cloudy.16 mph51%29.65 "Hg2 mi
4:00 AM81 °FThundershowers. Partly cloudy.21 mph51%29.65 "Hg2 mi
3:30 AM81 °FThundershowers. Partly cloudy.8 mph51%29.68 "Hg2 mi
3:00 AM82 °FThundershowers. Partly cloudy.15 mph45%29.65 "Hg2 mi
2:25 AM82 °FThundershowers. Partly cloudy.5 mph45%29.62 "Hg2 mi
1:55 AM82 °FThundershowers. Partly cloudy.3 mph45%29.62 "Hg2 mi
1:25 AM82 °FThundershowers. Partly cloudy.14 mph45%29.68 "Hg2 mi
12:55 AM82 °FThundershowers. Partly cloudy.15 mph45%29.68 "Hg2 mi
12:25 AM82 °FThundershowers. Partly cloudy.5 mph45%29.68 "Hg2 mi
11:55 PM
Tue, May 3
82 °FThundershowers. Partly cloudy.7 mph45%29.68 "Hg2 mi
11:25 PM82 °FThundershowers. Partly cloudy.6 mph45%29.71 "Hg2 mi
10:55 PM84 °FThundershowers. Partly cloudy.6 mph40%29.71 "Hg2 mi
10:25 PM84 °FThundershowers. Partly cloudy.6 mph40%29.71 "Hg2 mi
10:00 PM84 °FThundershowers. Partly cloudy.8 mph40%29.68 "Hg2 mi
9:25 PM84 °FThundershowers. Partly cloudy.9 mph40%29.68 "Hg2 mi
Weather by CustomWeather, © 2016

See weather overviewHow to use our weather pages